Location: *
(49.6619°S, 177.4603°W)
Time: 01:38:04
(UTC+00:00)

USA 307 - Pass Details

Date: 31 January 2023
Orbit: 495 x 502 km, 54.0° (Epoch: 10 March)

Event Time Altitude Azimuth Distance (km) Brightness Sun altitude
Rises 09:15:15 0° 269° (W) 2,636 7.0 -13.4°
Reaches altitude 10° 09:17:31 10° 262° (W) 1,744 6.1 -13.6°
Maximum altitude 09:21:20 46° 188° (S) 701 3.8 -14.0°
Drops below altitude 10° 09:25:06 10° 113° (ESE) 1,730 5.2 -14.4°
Sets 09:27:22 0° 107° (ESE) 2,613 6.1 -14.6°
